Location: Izdebno
(52.6670°N, 16.2170°E)
Time: 17:35:35
(UTC+02:00)

SR - Pass Details

Date: 26 February 2024
Orbit: 577 x 862 km, 66.7° (Epoch: 21 April)

Event Time Altitude Azimuth Distance (km) Brightness Sun altitude
Rises 16:51:47 0° 250° (WSW) 3,436 ? 4.3°
Reaches altitude 10° 16:54:30 10° 259° (W) 2,486 ? 3.9°
Maximum altitude 16:59:49 37° 326° (NW) 1,281 ? 3.2°
Drops below altitude 10° 17:04:53 10° 33° (NNE) 2,368 ? 2.4°
Sets 17:07:25 0° 42° (NE) 3,254 ? 2.1°
